Home > Weather > Kortrijk > Past weeks

Flag for Belgium Weather for the Past 2 Weeks in Kortrijk, Belgium

Now
39 °F

Partly sunny.


Feels Like: 32 °F
Forecast: 35 / 43 °F
Wind: 10 mph from North

Location: Lille Airport

Current Time: Feb 14, 2016 at 6:38:58 PM

Latest Report: Feb 14, 2016 at 6:00 PM


Visibility: N/A

Pressure: 29.42 "Hg

Humidity: 81%

Dew point: 34 °F

Location of KortrijkLocation

Historic Weather in Kortrijk — Graph

°F

Kortrijk Temperature Yesterday

Maximum temperature yesterday: 39 °F (at 3:00 PM)
Minimum temperature yesterday: 32 °F (at 2:00 AM)
Average temperature yesterday: 36 °F

High & Low Weather Summary for the Past Weeks

 TemperatureHumidityPressure
High54 °F (Jan 31, 5:00 PM)100% (Feb 2, 5:30 AM)30.36 "Hg (Feb 2, 5:30 AM)
Low32 °F (Feb 13, 2:00 AM)61% (Feb 3, 12:00 PM)28.94 "Hg (Feb 9, 12:30 PM)
Average44 °F85%29.68 "Hg
* Reported Jan 30 5:00 PM — Feb 14 5:30 PM, Kortrijk, Weather by CustomWeather, © 2016

Note: Actual official high and low records may vary slightly from our data, if they occured in-between our weather recording intervals... More about our weather records

Advertising

Kortrijk Weather History for the Previous 24 Hours

 ConditionsComfort  
Time TempWeatherWind HumidityBarometerVisibility
5:30 PM
Sun, Feb 14
41 °FOvercast.13 mph76%29.39 "HgN/A
5:00 PM41 °FBroken clouds.13 mph81%29.39 "HgN/A
4:30 PM41 °FLight rain. Partly sunny.14 mph81%29.36 "HgN/A
4:00 PM41 °FMore clouds than sun.12 mph81%29.33 "HgN/A
3:30 PM41 °FLight rain. Mostly cloudy.12 mph81%29.33 "HgN/A
3:00 PM41 °FPartly sunny.12 mph81%29.30 "HgN/A
2:30 PM41 °FMostly cloudy.12 mph81%29.30 "HgN/A
2:00 PM41 °FMostly cloudy.9 mph81%29.27 "HgN/A
1:30 PM41 °FCloudy.9 mph81%29.27 "HgN/A
1:00 PM39 °FMostly cloudy.9 mph87%29.27 "Hg6 mi
12:30 PM39 °FMostly cloudy.7 mph81%29.24 "Hg6 mi
12:00 PM39 °FMostly cloudy.9 mph87%29.24 "Hg4 mi
11:30 AM39 °FMore clouds than sun.9 mph87%29.24 "Hg4 mi
11:00 AM39 °FFog.8 mph87%29.21 "Hg3 mi
10:30 AM37 °FFog.7 mph100%29.21 "Hg3 mi
10:00 AM37 °FFog.6 mph100%29.18 "Hg2 mi
9:30 AM37 °FFog.7 mph100%29.18 "Hg2 mi
9:00 AM37 °FDrizzle. Fog.6 mph93%29.18 "Hg1 mi
8:30 AM37 °FDrizzle. Fog.6 mph93%29.15 "Hg2 mi
8:00 AM37 °FDrizzle. Fog.3 mph93%29.15 "Hg2 mi
7:30 AM37 °FDrizzle. Fog.2 mph93%29.15 "Hg2 mi
7:00 AM37 °FDrizzle. Fog.5 mph93%29.15 "Hg2 mi
6:30 AM37 °FDrizzle. Fog.6 mph93%29.12 "Hg2 mi
6:00 AM37 °FDrizzle. Fog.6 mph93%29.12 "Hg2 mi
5:30 AM37 °FLight rain. Fog.5 mph93%29.12 "Hg3 mi
5:00 AM37 °FLight rain. Fog.7 mph93%29.12 "Hg3 mi
4:30 AM37 °FLight rain. Fog.5 mph93%29.12 "Hg3 mi
4:00 AM37 °FLight rain. Fog.5 mph93%29.09 "Hg3 mi
3:30 AM37 °FDrizzle. Fog.5 mph93%29.09 "Hg2 mi
3:00 AM37 °FDrizzle. Fog.5 mph93%29.09 "Hg3 mi
2:30 AM37 °FLight rain. Fog.7 mph93%29.09 "Hg3 mi
2:00 AM37 °FDrizzle. Fog.6 mph100%29.06 "Hg2 mi
1:30 AM37 °FDrizzle. Fog.7 mph100%29.06 "Hg2 mi
1:00 AM37 °FDrizzle. Fog.6 mph100%29.06 "Hg2 mi
12:30 AM37 °FDrizzle. Fog.6 mph100%29.06 "Hg2 mi
12:00 AM37 °FFog.5 mph100%29.06 "Hg3 mi
11:30 PM
Sat, Feb 13
37 °FFog.3 mph100%29.06 "Hg2 mi
11:00 PM37 °FFog.6 mph100%29.03 "Hg2 mi
10:30 PM37 °FFog.8 mph100%29.03 "Hg3 mi
10:00 PM37 °FFog.9 mph100%29.00 "Hg3 mi
9:30 PM37 °FFog.9 mph100%29.00 "Hg3 mi
9:00 PM37 °FFog.12 mph100%29.00 "Hg3 mi
8:30 PM37 °FDrizzle. Fog.12 mph100%29.00 "Hg2 mi
8:00 PM37 °FFog.10 mph100%29.00 "Hg2 mi
7:30 PM37 °FFog.12 mph100%28.97 "Hg3 mi
7:00 PM39 °FLow clouds.12 mph93%28.97 "Hg4 mi
6:30 PM39 °FLow clouds.12 mph93%28.97 "Hg4 mi
6:00 PM39 °FFog.14 mph93%28.94 "Hg3 mi
Weather by CustomWeather, © 2016

See weather overviewHow to use our weather pages